Tracking 30685 objects as of 18-Jun-2025
HD Live streaming from Space Station
objects crossing your sky now

NOAA 16 DEB

Track NOAA 16 DEB now!
10-day predictions


NORAD ID: 41655
Int'l Code: 2000-055NU
Perigee: 771.9 km
Apogee: 801.2 km
Inclination: 98.7 °
Period: 100.4 minutes
Semi major axis: 7157 km
RCS: Unknown
Launch date: September 21, 2000
Source: United States (US)
Launch site: AIR FORCE WESTERN TEST RANGE (AFWTR)

Note: This is SATELLITE DEBRIS
Your satellite tracking list
Your tracking list is empty




NASA's NSSDC Master Catalog

Two Line Element Set (TLE):
1 41655U 00055NU  25168.54516867  .00003824  00000-0  13903-2 0  9990
2 41655  98.7216 263.6439 0020505 132.1485 228.1445 14.33699306475023
Source of the keplerian elements: AFSPC